Regional Weather Roundup
Issued by NWS

Home | Current Version | Previous Version | Graphics & Text | Print | Product List | Glossary Off
Versions: 1 2 3 4 5 6 7 8 9 10 11 12 13 14 15 16 17 18 19 20 21 22 23 24 25 26 27 28 29 30 31 32 33 34 35 36 37 38 39 40 41 42 43 44 45 46 47 48 49 50

000
ASUS43 KMKX 230700
RWRWI

WISCONSIN REGIONAL WEATHER ROUNDUP
NATIONAL WEATHER SERVICE MILWAUKEE/SULLIVAN WI
200 AM CDT MON APR 23 2018

NOTE: "FAIR" INDICATES FEW OR NO CLOUDS BELOW 12,000 FEET WITH NO
SIGNIFICANT WEATHER AND/OR OBSTRUCTIONS TO VISIBILITY.

WIZ001-002-006>008-014>016-023>028-230800-
NORTHWEST WISCONSIN

CITY           SKY/WX    TMP DP  RH WIND       PRES   REMARKS
SUPERIOR ARPT  FAIR      29  28  93 CALM      30.23F
ASHLAND        FAIR      34  23  64 SW5       30.24S WCI  30
HAYWARD        FAIR      30  26  85 N3        30.25S
SIREN          FAIR      35  30  82 SE3       30.24F
CUMBERLAND     FAIR      36  27  69 CALM      30.26R
RICE LAKE      FAIR      35  31  83 CALM      30.28S
CHETEK         FAIR      35  29  79 CALM      30.26S
LADYSMITH      FAIR      34  28  79 CALM      30.28S HAZE
EAU CLAIRE     NOT AVBL
MENOMONIE      FAIR      40  32  72 CALM      30.26S
NEW RICHMOND   FAIR      35  32  89 SE3       30.25S
OSCEOLA        FAIR      36  32  88 CALM      30.28S
$$

WIZ003>005-009-010-017-018-230800-
NORTH CENTRAL WISCONSIN

CITY           SKY/WX    TMP DP  RH WIND       PRES   REMARKS
MANITOWISH WTR FAIR      31  25  79 CALM      30.26S
ARBOR VITAE    FAIR      37  21  53 CALM      30.26S
WOODRUFF       FAIR      37  21  53 CALM      30.26S
RHINELANDER    FAIR      32  19  58 CALM      30.27F
EAGLE RIVER    FAIR      30  22  72 CALM      30.27S
LAND O LAKES   FAIR      29  22  74 CALM      30.29S
PHILLIPS       FAIR      32  26  78 CALM      30.26S
TOMAHAWK       FAIR      28  21  75 CALM      30.28S
MEDFORD        FAIR      32  23  68 CALM      30.26S
MERRILL          N/A     29  21  73 CALM      30.27F
$$

WIZ029-030-035-036-043>047-230800-
CENTRAL WISCONSIN

CITY           SKY/WX    TMP DP  RH WIND       PRES   REMARKS
WAUSAU         FAIR      32  23  69 CALM      30.26S
MOSINEE        FAIR      37  23  56 E3        30.28S
MARSHFIELD     FAIR      37  27  67 E3        30.26S
STEVENS POINT  FAIR      28  22  78 CALM      30.28F
WAUPACA        FAIR      33  29  85 CALM      30.29S
WAUTOMA        FAIR      31  27  85 CALM      30.29S
WISC RAPIDS    FAIR      37  24  59 CALM      30.28S
CAMP DOUGLAS   FAIR      31  27  85 CALM      30.26F
$$

WIZ011>013-019>022-031-037>040-048>050-230800-
NORTHEAST WISCONSIN

CITY           SKY/WX    TMP DP  RH WIND       PRES   REMARKS
ANTIGO         FAIR      31  28  88 CALM      30.28F
SHAWANO        FAIR      32  29  86 CALM      30.29S
OCONTO         FAIR      30  26  84 CALM      30.29F
STURGEON BAY   NOT AVBL
GREEN BAY      FAIR      35  27  72 CALM      30.29S
MANITOWOC      FAIR      34  28  79 CALM      30.30S
APPLETON       FAIR      41  21  45 CALM      30.27S
CLINTONVILLE   FAIR      33  26  76 CALM      30.29S
OSHKOSH        FAIR      40  28  62 CALM      30.28S
$$

WIZ032>034-041-042-053>061-230800-
SOUTHWEST WISCONSIN

CITY           SKY/WX    TMP DP  RH WIND       PRES   REMARKS
LA CROSSE      FAIR      43  30  60 E6        30.26S
SPARTA         FAIR      30  26  84 CALM      30.27S
VIROQUA        FAIR      42  30  62 E7        30.25S
BOSCOBEL       FAIR      36  31  82 CALM      30.26S
PRAIRIE DU CHI FAIR      43  31  62 CALM      30.25R
PLATTEVILLE    FAIR      45  29  54 NE9       30.24S
$$

WIZ056-057-062-063-064-067-068-230800-
SOUTH CENTRAL WISCONSIN

CITY           SKY/WX    TMP DP  RH WIND       PRES   REMARKS
REEDSBURG      FAIR      38  30  75 CALM      30.27S
BARABOO/DELLS  FAIR      34  27  76 CALM      30.27S
LONE ROCK      FAIR      36  32  85 CALM      30.26S
MINERAL POINT  FAIR      46  27  46 E6        30.24S
MADISON        FAIR      39  27  62 N3        30.25F
MIDDLETON      FAIR      36  32  84 CALM      30.26F
WATERTOWN      FAIR      39  25  56 CALM      30.26S
MONROE         FAIR      43  27  52 NE6       30.24S
JANESVILLE     FAIR      39  30  70 NE6       30.24F WCI  35
$$

WIZ051-052-058>065-066-070>072-230800-
SOUTHEAST WISCONSIN

CITY           SKY/WX    TMP DP  RH WIND       PRES   REMARKS
MILWAUKEE      FAIR      41  28  60 CALM      30.26F
WAUKESHA       FAIR      37  21  52 NE3       30.27S
MILWAUKEE/TIMM FAIR      34  23  64 CALM      30.27F
RACINE         FAIR      38  28  67 N3        30.27F
BURLINGTON     FAIR      39  25  56 CALM      30.25F
KENOSHA        FAIR      41  26  55 NE5       30.25F
FOND DU LAC    FAIR      37  24  59 CALM      30.28S
SHEBOYGAN      FAIR      35  27  72 N5        30.28S WCI  31
WEST BEND      FAIR      32  30  93 CALM      30.27F
JUNEAU         FAIR      38  26  60 CALM      30.27F
$$

LSZ147-162-230800-
LAKE SUPERIOR

STATION/POSITION TIME  TEMP    WIND        PRES    WAVE
                       AIR SEA DIR/SP/G            HT/PER
                 (UTC) (F)     (DEG/KT/KT) (MB)    (FT/S)
DEVILS ISLAND    0600   42        CALM     1024.4R
SAXON HARBOR     0640   36     190/  3/  5 1023.4S
$$

LMZ867-665-643>646-230800-
LAKE MICHIGAN

STATION/POSITION TIME  TEMP    WIND        PRES    WAVE
                       AIR SEA DIR/SP/G            HT/PER
                 (UTC) (F)     (DEG/KT/KT) (MB)    (FT/S)
NORTHPORT PIER   0640   35                 1025.7F
KEWAUNEE LAKESHO 0630   33     300/  4/  5 1025.1F
SHEBOYGAN LAKESH 0600   42     350/ 11/ 12 1026.1S
PORT WASHINGTON  0640   42     350/  4/  6 1026.1S
MILWAUKEE LAKESH 0630   44      30/ 12/ 14   N/A
KENOSHA   LAKESH 0600   43                 1024.4
$$

TC  - TEMPERATURE IN CELSIUS
VSB - VISIBILITY IN STATUTE MILES
WCI - WIND CHILL INDEX
HX  - HEAT INDEX





USA.gov is the U.S. government's official web portal to all federal, state and local government web resources and services.